STARLINK-11625, 63109

Orbit data source: Space-Track

STARLINK-11625, 63109 is a payload satellite owned by SpaceX/Seattle (US) in LEO that was launched on Thu, 27 Feb 2025 UTC via an FALCON 9 launch vehicle from the Air Force Eastern Test Range (AFETR). Payload-class satellites include a variety of spacecraft equipped with specific instruments for various scientific and technological missions. These include communications satellites like Starlink; space stations such as the ISS; scientific satellites like the Hubble; Earth observation satellites from companies like Planet Labs, Umbra, and HawkEye 360; GPS; miniature CubeSats for education and research; and military/defense satellites.

Loading next visibility...
Identifier
63109, 2025-039F
Orbit
LEO
Last TLE update
17 hours ago
Origin
Manufacturer
SpaceX/Seattle
Mission
Operational Commercial Communications
Bus & Motor
STARLINK V2M, Unknown motor
Mass
730 kg wet, ~700 kg dry
Launch date (UTC)
2025-02-27 (4 months ago)
Launch vehicle
FALCON 9
Launch site
Air Force Eastern Test Range (AFETR)
Object type
Payload
Rocket body
Debris
Shape & HBR
Box + 2 Pan, 29 m
Radar Cross Section
36.964 m², Large (>1 m²)

Expand to show TLE details & history

TLE from 17 hours ago
0 STARLINK-11625
1 63109U 25039F   25181.71333625  .00211853  00000-0  16093-2 0  9996
2 63109  42.9999 315.8975 0002205 284.2039  75.8583 15.70890990 19989
Epoch: 2025-06-30T17:07Z
TLE epoch observation values (Epoch: 2025-06-30T17:07:12.251Z)
Latitude
-0.00008°
Longitude
140.07717°
Altitude
355.758 km
Speed
7.698 km/s
True Right ascension
21h 03m 35s
True Declination
0° 00' 00"
Sunlit
Object was in full shadow at epoch
Visualization orbit readout
Latitude
25.16149°
Longitude
-74.35245°
Altitude
356.57 km
Speed
7.699 km/s
Apparent Right ascension
08h 15m 25s
Apparent Declination
-7° 00' 41"
Sunlit
Object is in daylight
Visualization observer readout
Local Sidereal Time
22:08:40
Azimuth
45.223° ENE
Elevation
-48.462°
Doppler factor
1
Orbital elements
Apogee altitude
359.816 km
Perigee altitude
356.846 km
Semi-major axis
6,736.468 km
Eccentricity
0.00022
Inclination
42.9999°
RAAN
315.8975°
Arg. of periapsis
284.2039°
True anomaly
Unknown
Mean anomaly
75.8583°
Eccentric anomaly
Unknown
Mean motion
3.9255 °/min
Orbital period
91.71 mins
BSTAR
0.0016093
Loading maneuver chart data...
Loading SW <> Apogee altitude chart data...
Loading historical data...
Loading historical data...
Loading historical data...
Loading historical data...
Loading historical data...
Loading historical data...
Loading historical data...

STARLINK-11625 Visibility forecast

Observer location: undefined°, undefined°

Span
Click to sort rows by Start time (UTC) header in descending order
Start Az.
Max El. time (UTC)
Max El. Az.
Max El.
End time (UTC)
End Az.
4 mins2025-07-01 13:13:13.058Z248.638° W2025-07-01 13:15:13.058Z81.334° E43.043°2025-07-01 13:17:13.058Z72.555° E
4 mins2025-07-01 16:26:13.058Z297.882° NW2025-07-01 16:27:13.058Z337.763° N42.558°2025-07-01 16:30:13.058Z100.251° ESE
|